Location: Newark
(50.6167°N, 5.6500°E)
Time: 20:27:49
(UTC+00:00)

Falcon 9 debris - Visible Passes

Search period start: 22 July 2019 00:00
Search period end: 01 August 2019 00:00
Orbit: 431 x 439 km, 53.0° (Epoch: 22 July)

Date Brightness Start Highest point End Pass type
(mag) Time Alt. Az. Time Alt. Az. Time Alt. Az.
22 Jul 3.0 00:50:02 45° WSW 00:50:58 80° SSE 00:54:25 10° ENE visible
22 Jul 3.8 02:24:45 10° W 02:28:09 55° N 02:31:34 10° ENE visible
23 Jul 3.1 00:08:55 61° SE 00:08:55 61° SE 00:12:08 10° ENE visible
23 Jul 3.7 01:42:25 10° W 01:45:50 58° N 01:49:15 10° ENE visible
23 Jul 4.3 23:27:45 31° E 23:27:45 31° E 23:29:50 10° ENE visible
24 Jul 3.5 01:01:00 17° W 01:03:31 63° N 01:06:57 10° ENE visible
24 Jul 3.6 02:37:22 10° WNW 02:40:49 63° N 02:44:14 10° E visible
24 Jul 5.2 22:46:29 17° E 22:46:29 17° E 22:47:29 10° E visible
25 Jul 3.3 00:19:44 31° W 00:21:13 72° NNW 00:24:40 10° ENE visible
25 Jul 3.8 01:55:04 10° WNW 01:58:30 58° N 02:01:54 10° E visible
25 Jul 5.7 22:05:02 10° E 22:05:02 10° E 22:05:05 10° E visible
25 Jul 3.1 23:38:16 56° W 23:38:55 85° NNW 23:42:23 10° ENE visible
26 Jul 3.8 01:12:46 10° WNW 01:16:10 55° N 01:19:34 10° E visible
26 Jul 3.0 02:49:53 10° WNW 02:53:21 80° SSW 02:56:48 10° ESE visible
26 Jul 2.9 22:56:19 69° SW 22:56:39 79° SSE 23:00:06 10° ENE visible
27 Jul 3.8 00:30:26 10° W 00:33:49 55° N 00:37:14 10° ENE visible
27 Jul 3.1 02:07:37 10° WNW 02:11:04 83° NNE 02:14:31 10° ESE visible
27 Jul 4.9 20:36:00 10° SSE 20:37:54 14° SE 20:39:47 10° ESE visible
27 Jul 3.0 22:10:58 10° SW 22:14:23 61° SSE 22:17:49 10° ENE visible
27 Jul 3.7 23:48:04 10° W 23:51:30 58° N 23:54:55 10° ENE visible
28 Jul 3.3 01:25:20 10° WNW 01:28:46 71° NNE 01:32:13 10° E visible
28 Jul 3.7 03:02:29 10° WNW 03:05:41 36° SSW 03:08:52 10° SE visible
28 Jul 3.3 21:28:50 10° SW 21:32:10 46° SSE 21:35:30 10° ENE visible
28 Jul 3.5 23:05:44 10° W 23:09:10 64° N 23:12:36 10° ENE visible
29 Jul 3.6 00:43:01 10° WNW 00:46:28 62° N 00:49:53 10° E visible
29 Jul 3.3 02:20:08 10° WNW 02:23:29 48° SSW 02:26:49 10° SE visible
29 Jul 3.7 20:46:47 10° SSW 20:49:58 34° SE 20:53:08 10° E visible
29 Jul 3.3 22:23:24 10° W 22:26:51 73° NNW 22:30:19 10° ENE visible
30 Jul 3.7 00:00:42 10° WNW 00:04:08 57° N 00:07:33 10° E visible
30 Jul 3.0 01:37:50 10° WNW 01:41:15 64° SSW 01:44:39 10° SE visible
30 Jul 4.8 03:15:46 10° W 03:17:46 15° SW 03:19:45 10° S visible
30 Jul 4.2 20:04:52 10° SSW 20:07:47 26° SE 20:10:42 10° E visible
30 Jul 3.1 21:41:05 10° WSW 21:44:33 86° NNW 21:48:01 10° ENE visible
30 Jul 3.8 23:18:23 10° WNW 23:21:48 55° N 23:25:12 10° E visible
31 Jul 2.9 00:55:31 10° WNW 00:58:59 81° SSW 01:02:26 10° ESE visible
31 Jul 4.4 02:33:02 10° W 02:35:39 20° SW 02:38:14 10° S visible
31 Jul 3.0 20:58:49 10° WSW 21:02:16 78° SSE 21:05:44 10° ENE visible
31 Jul 3.8 22:36:02 10° W 22:39:27 56° N 22:42:51 10° ENE visible
